Time,TemperatureF,DewpointF,PressureIn,WindDirection,WindDirectionDegrees,WindSpeedMPH,WindSpeedGustMPH,Humidity,HourlyPrecipIn,Conditions,Clouds,dailyrainin,SolarRadiationWatts/m^2,SoftwareType,DateUTC
2013-02-06 00:00:00,8.1,5.0,30.09,NW,309,0.0,0.0,87,0.00,,,0.00,0.00,VWS V14.01,2013-02-06 06:00:00,
2013-02-06 00:05:00,8.0,4.9,30.10,NW,309,0.0,0.0,87,0.00,,,0.00,0.00,VWS V14.01,2013-02-06 06:05:00,
2013-02-06 00:10:00,7.9,4.8,30.09,NW,309,0.0,0.0,87,0.00,,,0.00,0.00,VWS V14.01,2013-02-06 06:10:00,
2013-02-06 00:15:00,7.7,4.7,30.10,NW,309,0.0,0.0,87,0.00,,,0.00,0.00,VWS V14.01,2013-02-06 06:15:00,
2013-02-06 00:20:00,7.3,4.0,30.09,NW,309,0.0,0.0,86,0.00,,,0.00,0.00,VWS V14.01,2013-02-06 06:20:00,
2013-02-06 00:25:00,7.1,3.8,30.09,NW,309,0.0,0.0,86,0.00,,,0.00,0.00,VWS V14.01,2013-02-06 06:25:00,
2013-02-06 00:30:00,7.0,3.7,30.09,NW,309,0.0,0.0,86,0.00,,,0.00,0.00,VWS V14.01,2013-02-06 06:30:00,
2013-02-06 00:35:00,6.8,3.5,30.09,NW,309,0.0,0.0,86,0.00,,,0.00,0.00,VWS V14.01,2013-02-06 06:35:00,
2013-02-06 00:40:00,6.6,3.3,30.09,NW,309,0.0,0.0,86,0.00,,,0.00,0.00,VWS V14.01,2013-02-06 06:40:00,
2013-02-06 00:45:00,6.3,2.8,30.09,NW,309,0.0,0.0,85,0.00,,,0.00,0.00,VWS V14.01,2013-02-06 06:45:00,
2013-02-06 00:50:00,6.0,2.5,30.10,NW,309,0.0,0.0,85,0.00,,,0.00,0.00,VWS V14.01,2013-02-06 06:50:00,
2013-02-06 00:55:00,5.6,2.1,30.10,NW,309,0.0,0.0,85,0.00,,,0.00,0.00,VWS V14.01,2013-02-06 06:55:00,
2013-02-06 01:00:00,5.3,1.8,30.10,NW,309,0.0,0.0,85,0.00,,,0.00,0.00,VWS V14.01,2013-02-06 07:00:00,
2013-02-06 01:05:00,5.1,1.6,30.11,NW,309,0.0,0.0,85,0.00,,,0.00,0.00,VWS V14.01,2013-02-06 07:05:00,
2013-02-06 01:10:00,4.8,1.3,30.11,NW,309,0.0,0.0,85,0.00,,,0.00,0.00,VWS V14.01,2013-02-06 07:10:00,
2013-02-06 01:15:00,4.6,1.1,30.11,NW,309,0.0,0.0,85,0.00,,,0.00,0.00,VWS V14.01,2013-02-06 07:15:00,
2013-02-06 01:20:00,4.2,0.7,30.11,NW,309,0.0,0.0,85,0.00,,,0.00,0.00,VWS V14.01,2013-02-06 07:20:00,
2013-02-06 01:25:00,4.2,0.9,30.11,NW,309,0.0,0.0,86,0.00,,,0.00,0.00,VWS V14.01,2013-02-06 07:25:00,
2013-02-06 01:30:00,4.4,1.1,30.11,NW,309,0.0,0.0,86,0.00,,,0.00,0.00,VWS V14.01,2013-02-06 07:30:00,
2013-02-06 01:35:00,4.4,1.1,30.11,NW,309,0.0,0.0,86,0.00,,,0.00,0.00,VWS V14.01,2013-02-06 07:35:00,
2013-02-06 01:40:00,4.4,1.1,30.11,NW,309,0.0,0.0,86,0.00,,,0.00,0.00,VWS V14.01,2013-02-06 07:40:00,
2013-02-06 01:45:00,4.6,1.6,30.12,NW,309,0.0,0.0,87,0.00,,,0.00,0.00,VWS V14.01,2013-02-06 07:45:00,
2013-02-06 01:50:00,4.2,0.9,30.12,NW,309,0.0,0.0,86,0.00,,,0.00,0.00,VWS V14.01,2013-02-06 07:50:00,
2013-02-06 01:56:00,3.4,-0.6,30.12,NW,309,0.0,0.0,83,0.00,,,0.00,0.00,VWS V14.01,2013-02-06 07:56:00,
2013-02-06 02:00:00,3.0,-1.0,30.12,NW,309,0.0,0.0,83,0.00,,,0.00,0.00,VWS V14.01,2013-02-06 08:00:00,
2013-02-06 02:06:00,2.9,-0.6,30.12,NW,309,0.0,0.0,85,0.00,,,0.00,0.00,VWS V14.01,2013-02-06 08:06:00,
2013-02-06 02:11:00,3.2,0.0,30.12,NW,309,0.0,0.0,86,0.00,,,0.00,0.00,VWS V14.01,2013-02-06 08:11:00,
2013-02-06 02:16:00,3.1,-0.1,30.12,NW,309,0.0,0.0,86,0.00,,,0.00,0.00,VWS V14.01,2013-02-06 08:16:00,
2013-02-06 02:21:00,3.0,-0.5,30.13,NW,309,0.0,0.0,85,0.00,,,0.00,0.00,VWS V14.01,2013-02-06 08:21:00,
2013-02-06 02:26:00,2.9,-0.3,30.13,NW,309,0.0,0.0,86,0.00,,,0.00,0.00,VWS V14.01,2013-02-06 08:26:00,
2013-02-06 02:31:00,3.0,-0.2,30.12,NW,309,0.0,0.0,86,0.00,,,0.00,0.00,VWS V14.01,2013-02-06 08:31:00,
2013-02-06 02:36:00,3.0,-0.2,30.12,NW,309,0.0,0.0,86,0.00,,,0.00,0.00,VWS V14.01,2013-02-06 08:36:00,
2013-02-06 02:41:00,3.2,0.2,30.13,NW,309,0.0,0.0,87,0.00,,,0.00,0.00,VWS V14.01,2013-02-06 08:41:00,
2013-02-06 02:46:00,2.9,-0.3,30.13,NW,309,0.0,0.0,86,0.00,,,0.00,0.00,VWS V14.01,2013-02-06 08:46:00,
2013-02-06 02:51:00,2.8,-0.7,30.13,NW,309,0.0,0.0,85,0.00,,,0.00,0.00,VWS V14.01,2013-02-06 08:51:00,
2013-02-06 02:56:00,2.5,-1.0,30.13,NW,309,0.0,0.0,85,0.00,,,0.00,0.00,VWS V14.01,2013-02-06 08:56:00,
2013-02-06 03:01:00,2.0,-1.7,30.14,NW,309,0.0,0.0,84,0.00,,CLR,0.00,0.00,VWS V14.01,2013-02-06 09:01:00,
2013-02-06 03:06:00,1.4,-2.5,30.14,NW,309,0.0,1.0,83,0.00,,CLR,0.00,0.00,VWS V14.01,2013-02-06 09:06:00,
2013-02-06 03:11:00,0.8,-3.1,30.14,NW,309,0.0,1.0,83,0.00,,CLR,0.00,0.00,VWS V14.01,2013-02-06 09:11:00,
2013-02-06 03:16:00,0.7,-3.0,30.14,NW,309,0.0,1.0,84,0.00,,CLR,0.00,0.00,VWS V14.01,2013-02-06 09:16:00,
2013-02-06 03:21:00,0.7,-2.7,30.14,NW,309,0.0,1.0,85,0.00,,CLR,0.00,0.00,VWS V14.01,2013-02-06 09:21:00,
2013-02-06 03:26:00,0.6,-2.8,30.13,NW,309,0.0,1.0,85,0.00,,CLR,0.00,0.00,VWS V14.01,2013-02-06 09:26:00,
2013-02-06 03:31:00,0.5,-2.9,30.14,NW,309,0.0,0.0,85,0.00,,CLR,0.00,0.00,VWS V14.01,2013-02-06 09:31:00,
2013-02-06 03:36:00,0.4,-3.0,30.14,NW,309,0.0,0.0,85,0.00,,CLR,0.00,0.00,VWS V14.01,2013-02-06 09:36:00,
2013-02-06 03:41:00,0.3,-3.1,30.14,NW,309,0.0,0.0,85,0.00,,CLR,0.00,0.00,VWS V14.01,2013-02-06 09:41:00,
2013-02-06 03:46:00,0.4,-3.0,30.13,NW,309,0.0,0.0,85,0.00,,CLR,0.00,0.00,VWS V14.01,2013-02-06 09:46:00,
2013-02-06 03:51:00,0.7,-2.5,30.13,NW,309,0.0,0.0,86,0.00,,CLR,0.00,0.00,VWS V14.01,2013-02-06 09:51:00,
2013-02-06 03:56:00,0.7,-2.7,30.13,NW,309,0.0,0.0,85,0.00,,CLR,0.00,0.00,VWS V14.01,2013-02-06 09:56:00,
2013-02-06 04:01:00,0.8,-2.6,30.13,NW,309,0.0,0.0,85,0.00,,CLR,0.00,0.00,VWS V14.01,2013-02-06 10:01:00,
2013-02-06 04:06:00,0.9,-2.5,30.13,NW,309,0.0,0.0,85,0.00,,CLR,0.00,0.00,VWS V14.01,2013-02-06 10:06:00,
2013-02-06 04:11:00,0.8,-2.6,30.13,NW,309,0.0,0.0,85,0.00,,CLR,0.00,0.00,VWS V14.01,2013-02-06 10:11:00,
2013-02-06 04:16:00,0.7,-2.7,30.13,NW,309,0.0,0.0,85,0.00,,CLR,0.00,0.00,VWS V14.01,2013-02-06 10:16:00,
2013-02-06 04:21:00,0.6,-2.8,30.13,NW,309,0.0,0.0,85,0.00,,CLR,0.00,0.00,VWS V14.01,2013-02-06 10:21:00,
2013-02-06 04:26:00,0.5,-3.2,30.14,NW,309,0.0,1.0,84,0.00,,CLR,0.00,0.00,VWS V14.01,2013-02-06 10:26:00,
2013-02-06 04:31:00,0.7,-2.5,30.13,NW,309,0.0,1.0,86,0.00,,CLR,0.00,0.00,VWS V14.01,2013-02-06 10:31:00,
2013-02-06 04:36:00,1.0,-2.2,30.13,NW,309,0.0,1.0,86,0.00,,CLR,0.00,0.00,VWS V14.01,2013-02-06 10:36:00,
2013-02-06 04:41:00,1.1,-2.1,30.13,NW,309,0.0,1.0,86,0.00,,CLR,0.00,0.00,VWS V14.01,2013-02-06 10:41:00,
2013-02-06 04:46:00,1.1,-2.1,30.13,NW,309,0.0,1.0,86,0.00,,CLR,0.00,0.00,VWS V14.01,2013-02-06 10:46:00,
2013-02-06 04:51:00,1.3,-1.9,30.13,NW,309,0.0,1.0,86,0.00,,CLR,0.00,0.00,VWS V14.01,2013-02-06 10:51:00,
2013-02-06 04:56:00,1.2,-2.0,30.13,NW,309,0.0,1.0,86,0.00,,CLR,0.00,0.00,VWS V14.01,2013-02-06 10:56:00,
2013-02-06 05:01:00,1.0,-2.5,30.13,NW,309,1.0,1.0,85,0.00,,CLR,0.00,0.00,VWS V14.01,2013-02-06 11:01:00,
2013-02-06 05:06:00,1.0,-2.2,30.13,NW,309,0.0,1.0,86,0.00,,CLR,0.00,0.00,VWS V14.01,2013-02-06 11:06:00,
2013-02-06 05:11:00,1.4,-1.8,30.13,NW,309,1.0,1.0,86,0.00,,CLR,0.00,0.00,VWS V14.01,2013-02-06 11:11:00,
2013-02-06 05:16:00,1.3,-2.2,30.13,NW,309,1.0,1.0,85,0.00,,CLR,0.00,0.00,VWS V14.01,2013-02-06 11:16:00,
2013-02-06 05:21:00,1.1,-2.3,30.13,NW,309,0.0,2.0,85,0.00,,CLR,0.00,0.00,VWS V14.01,2013-02-06 11:21:00,
2013-02-06 05:26:00,0.9,-2.5,30.12,NW,309,0.0,2.0,85,0.00,,CLR,0.00,0.00,VWS V14.01,2013-02-06 11:26:00,
2013-02-06 05:31:00,0.9,-2.5,30.13,NW,309,0.0,0.0,85,0.00,,CLR,0.00,0.00,VWS V14.01,2013-02-06 11:31:00,
2013-02-06 05:36:00,1.2,-2.0,30.12,NW,309,0.0,1.0,86,0.00,,CLR,0.00,0.00,VWS V14.01,2013-02-06 11:36:00,
2013-02-06 05:41:00,1.2,-2.0,30.13,NW,309,1.0,1.0,86,0.00,,CLR,0.00,0.00,VWS V14.01,2013-02-06 11:41:00,
2013-02-06 05:46:00,1.1,-2.1,30.13,NW,309,0.0,1.0,86,0.00,,CLR,0.00,0.00,VWS V14.01,2013-02-06 11:46:00,
2013-02-06 05:51:00,0.2,-3.7,30.12,NW,309,1.0,1.0,83,0.00,,CLR,0.00,0.00,VWS V14.01,2013-02-06 11:51:00,
2013-02-06 05:56:00,0.2,-3.2,30.12,NW,309,0.0,1.0,85,0.00,,CLR,0.00,0.00,VWS V14.01,2013-02-06 11:56:00,
2013-02-06 06:01:00,0.1,-3.3,30.12,NW,309,0.0,1.0,85,0.00,,CLR,0.00,0.00,VWS V14.01,2013-02-06 12:01:00,
2013-02-06 06:06:00,0.3,-2.9,30.12,NW,309,0.0,1.0,86,0.00,,CLR,0.00,0.00,VWS V14.01,2013-02-06 12:06:00,
2013-02-06 06:11:00,-0.1,-3.5,30.13,NW,309,0.0,1.0,85,0.00,,CLR,0.00,0.00,VWS V14.01,2013-02-06 12:11:00,
2013-02-06 06:16:00,-0.9,-4.8,30.12,NW,309,1.0,1.0,83,0.00,,CLR,0.00,0.00,VWS V14.01,2013-02-06 12:16:00,
2013-02-06 06:21:00,-0.9,-4.3,30.13,NW,309,0.0,1.0,85,0.00,,CLR,0.00,0.00,VWS V14.01,2013-02-06 12:21:00,
2013-02-06 06:26:00,-0.5,-3.7,30.13,NW,309,0.0,1.0,86,0.00,,CLR,0.00,0.00,VWS V14.01,2013-02-06 12:26:00,
2013-02-06 06:31:00,-0.8,-4.5,30.13,NW,309,0.0,0.0,84,0.00,,CLR,0.00,0.00,VWS V14.01,2013-02-06 12:31:00,
2013-02-06 06:36:00,-1.5,-5.4,30.13,NW,309,0.0,0.0,83,0.00,,CLR,0.00,0.00,VWS V14.01,2013-02-06 12:36:00,
2013-02-06 06:41:00,-1.6,-5.2,30.13,NW,309,0.0,0.0,84,0.00,,CLR,0.00,0.00,VWS V14.01,2013-02-06 12:41:00,
2013-02-06 06:46:00,-1.4,-4.8,30.14,NW,309,0.0,0.0,85,0.00,,CLR,0.00,0.00,VWS V14.01,2013-02-06 12:46:00,
2013-02-06 06:51:00,-1.3,-4.7,30.15,NW,309,0.0,0.0,85,0.00,,CLR,0.00,0.00,VWS V14.01,2013-02-06 12:51:00,
2013-02-06 06:56:00,-1.6,-5.2,30.14,NW,309,0.0,0.0,84,0.00,,CLR,0.00,0.00,VWS V14.01,2013-02-06 12:56:00,
2013-02-06 07:01:00,-1.3,-4.7,30.14,NW,309,0.0,1.0,85,0.00,,CLR,0.00,0.00,VWS V14.01,2013-02-06 13:01:00,
2013-02-06 07:06:00,-1.0,-4.4,30.14,NW,309,0.0,1.0,85,0.00,,CLR,0.00,0.00,VWS V14.01,2013-02-06 13:06:00,
2013-02-06 07:11:00,-1.1,-4.5,30.15,NW,309,0.0,1.0,85,0.00,,CLR,0.00,0.00,VWS V14.01,2013-02-06 13:11:00,
2013-02-06 07:16:00,-2.1,-6.2,30.16,NW,309,0.0,3.0,82,0.00,,CLR,0.00,0.00,VWS V14.01,2013-02-06 13:16:00,
2013-02-06 07:21:00,-2.1,-5.7,30.17,NW,309,0.0,3.0,84,0.00,,CLR,0.00,5.00,VWS V14.01,2013-02-06 13:21:00,
2013-02-06 07:26:00,-1.9,-5.3,30.17,NW,309,0.0,3.0,85,0.00,,CLR,0.00,7.00,VWS V14.01,2013-02-06 13:26:00,
2013-02-06 07:31:00,-1.6,-5.0,30.17,NW,309,0.0,0.0,85,0.00,,CLR,0.00,9.00,VWS V14.01,2013-02-06 13:31:00,
2013-02-06 07:36:00,-1.2,-4.4,30.16,NW,309,0.0,1.0,86,0.00,,CLR,0.00,12.00,VWS V14.01,2013-02-06 13:36:00,
2013-02-06 07:41:00,-1.1,-4.5,30.17,NW,309,0.0,1.0,85,0.00,,CLR,0.00,19.00,VWS V14.01,2013-02-06 13:41:00,
2013-02-06 07:47:00,-1.2,-4.8,30.16,NW,309,0.0,1.0,84,0.00,,CLR,0.00,28.00,VWS V14.01,2013-02-06 13:47:00,
2013-02-06 07:51:00,-1.0,-4.4,30.16,NW,309,0.0,1.0,85,0.00,,CLR,0.00,30.00,VWS V14.01,2013-02-06 13:51:00,
2013-02-06 07:56:00,-0.9,-4.6,30.17,NW,309,1.0,1.0,84,0.00,,CLR,0.00,37.00,VWS V14.01,2013-02-06 13:56:00,
2013-02-06 08:01:00,-0.8,-4.2,30.17,NW,309,0.0,0.0,85,0.00,,,0.00,46.00,VWS V14.01,2013-02-06 14:01:00,
2013-02-06 08:06:00,0.5,-2.5,30.17,NW,309,0.0,1.0,87,0.00,,,0.00,60.00,VWS V14.01,2013-02-06 14:06:00,
2013-02-06 08:11:00,1.6,-1.1,30.17,NW,309,0.0,1.0,88,0.00,,,0.00,72.00,VWS V14.01,2013-02-06 14:11:00,
2013-02-06 08:16:00,2.4,-0.3,30.17,NW,309,0.0,1.0,88,0.00,,,0.00,107.00,VWS V14.01,2013-02-06 14:16:00,
2013-02-06 08:21:00,2.9,-0.1,30.17,NW,309,0.0,1.0,87,0.00,,,0.00,107.00,VWS V14.01,2013-02-06 14:21:00,
2013-02-06 08:26:00,3.4,0.4,30.17,NW,309,1.0,1.0,87,0.00,,,0.00,84.00,VWS V14.01,2013-02-06 14:26:00,
2013-02-06 08:31:00,4.0,1.0,30.16,NW,309,0.0,1.0,87,0.00,,,0.00,93.00,VWS V14.01,2013-02-06 14:31:00,
2013-02-06 08:36:00,4.4,1.4,30.17,NW,309,0.0,1.0,87,0.00,,,0.00,111.00,VWS V14.01,2013-02-06 14:36:00,
2013-02-06 08:41:00,4.8,1.8,30.17,NW,309,0.0,1.0,87,0.00,,,0.00,134.00,VWS V14.01,2013-02-06 14:41:00,
2013-02-06 08:46:00,5.1,1.8,30.17,NW,309,0.0,1.0,86,0.00,,,0.00,139.00,VWS V14.01,2013-02-06 14:46:00,
2013-02-06 08:52:00,5.6,2.6,30.17,NW,309,0.0,1.0,87,0.00,,,0.00,153.00,VWS V14.01,2013-02-06 14:52:00,
2013-02-06 08:56:00,6.4,3.4,30.17,NW,309,0.0,1.0,87,0.00,,,0.00,197.00,VWS V14.01,2013-02-06 14:56:00,
2013-02-06 09:02:00,7.2,4.2,30.17,NW,309,0.0,1.0,87,0.00,,,0.00,186.00,VWS V14.01,2013-02-06 15:02:00,
2013-02-06 09:06:00,7.8,4.7,30.17,NW,309,0.0,1.0,87,0.00,,,0.00,171.00,VWS V14.01,2013-02-06 15:06:00,
2013-02-06 09:11:00,8.5,5.7,30.17,NW,309,0.0,1.0,88,0.00,,,0.00,141.00,VWS V14.01,2013-02-06 15:11:00,
2013-02-06 09:16:00,9.1,6.3,30.17,NW,309,0.0,1.0,88,0.00,,,0.00,139.00,VWS V14.01,2013-02-06 15:16:00,
2013-02-06 09:22:00,9.6,6.8,30.17,NW,309,0.0,1.0,88,0.00,,,0.00,114.00,VWS V14.01,2013-02-06 15:22:00,
2013-02-06 09:27:00,10.3,7.5,30.18,NW,309,0.0,1.0,88,0.00,,,0.00,132.00,VWS V14.01,2013-02-06 15:27:00,
2013-02-06 09:32:00,11.0,8.1,30.18,NW,309,0.0,1.0,88,0.00,,,0.00,160.00,VWS V14.01,2013-02-06 15:32:00,
2013-02-06 09:37:00,11.3,8.2,30.18,South,184,1.0,3.0,87,0.00,,,0.00,155.00,VWS V14.01,2013-02-06 15:37:00,
2013-02-06 09:42:00,11.6,8.5,30.17,South,184,1.0,3.0,87,0.00,,,0.00,149.00,VWS V14.01,2013-02-06 15:42:00,
2013-02-06 09:47:00,11.8,8.7,30.17,South,184,0.0,3.0,87,0.00,,,0.00,142.00,VWS V14.01,2013-02-06 15:47:00,
2013-02-06 09:52:00,12.2,9.3,30.17,South,184,0.0,3.0,88,0.00,,,0.00,156.00,VWS V14.01,2013-02-06 15:52:00,
2013-02-06 09:57:00,12.5,9.4,30.17,South,184,0.0,3.0,87,0.00,,,0.00,176.00,VWS V14.01,2013-02-06 15:57:00,
2013-02-06 10:02:00,13.0,9.9,30.17,South,184,0.0,0.0,87,0.00,,,0.00,193.00,VWS V14.01,2013-02-06 16:02:00,
2013-02-06 10:07:00,13.4,10.3,30.17,South,184,0.0,1.0,87,0.00,,,0.00,178.00,VWS V14.01,2013-02-06 16:07:00,
2013-02-06 10:12:00,13.6,10.5,30.17,South,184,0.0,2.0,87,0.00,,,0.00,156.00,VWS V14.01,2013-02-06 16:12:00,
2013-02-06 10:17:00,13.7,10.3,30.17,South,184,0.0,2.0,86,0.00,,,0.00,158.00,VWS V14.01,2013-02-06 16:17:00,
2013-02-06 10:22:00,13.7,10.3,30.17,South,184,0.0,2.0,86,0.00,,,0.00,156.00,VWS V14.01,2013-02-06 16:22:00,
2013-02-06 10:27:00,14.0,10.6,30.17,South,184,0.0,2.0,86,0.00,,,0.00,165.00,VWS V14.01,2013-02-06 16:27:00,
2013-02-06 10:32:00,14.2,10.8,30.17,ESE,120,0.0,2.0,86,0.00,,,0.00,176.00,VWS V14.01,2013-02-06 16:32:00,
2013-02-06 10:37:00,14.4,11.0,30.17,ESE,120,2.0,2.0,86,0.00,,,0.00,192.00,VWS V14.01,2013-02-06 16:37:00,
2013-02-06 10:42:00,14.8,11.4,30.17,ESE,120,0.0,2.0,86,0.00,,,0.00,204.00,VWS V14.01,2013-02-06 16:42:00,
2013-02-06 10:47:00,15.1,11.4,30.17,South,173,2.0,2.0,85,0.00,,,0.00,197.00,VWS V14.01,2013-02-06 16:47:00,
2013-02-06 10:52:00,15.2,11.5,30.18,South,173,1.0,3.0,85,0.00,,,0.00,227.00,VWS V14.01,2013-02-06 16:52:00,
2013-02-06 10:57:00,15.3,11.3,30.17,South,182,2.0,4.0,84,0.00,,,0.00,223.00,VWS V14.01,2013-02-06 16:57:00,
2013-02-06 11:02:00,15.7,11.7,30.17,South,182,0.0,2.0,84,0.00,,,0.00,225.00,VWS V14.01,2013-02-06 17:02:00,
2013-02-06 11:07:00,16.1,12.1,30.16,South,182,0.0,2.0,84,0.00,,,0.00,236.00,VWS V14.01,2013-02-06 17:07:00,
2013-02-06 11:12:00,16.4,12.1,30.17,SE,129,1.0,3.0,83,0.00,,,0.00,230.00,VWS V14.01,2013-02-06 17:12:00,
2013-02-06 11:17:00,16.7,12.4,30.17,South,188,2.0,3.0,83,0.00,,,0.00,229.00,VWS V14.01,2013-02-06 17:17:00,
2013-02-06 11:22:00,17.0,12.5,30.17,SSW,195,5.0,5.0,82,0.00,,,0.00,223.00,VWS V14.01,2013-02-06 17:22:00,
2013-02-06 11:27:00,17.2,12.7,30.17,SSE,157,3.0,5.0,82,0.00,,,0.00,221.00,VWS V14.01,2013-02-06 17:27:00,
2013-02-06 11:32:00,17.3,12.8,30.17,South,175,0.0,4.0,82,0.00,,,0.00,200.00,VWS V14.01,2013-02-06 17:32:00,
2013-02-06 11:37:00,17.3,12.5,30.17,SE,138,3.0,4.0,81,0.00,,,0.00,179.00,VWS V14.01,2013-02-06 17:37:00,
2013-02-06 11:42:00,17.3,12.8,30.17,South,187,6.0,6.0,82,0.00,,,0.00,183.00,VWS V14.01,2013-02-06 17:42:00,
2013-02-06 11:47:00,17.6,13.1,30.17,South,188,4.0,6.0,82,0.00,,,0.00,192.00,VWS V14.01,2013-02-06 17:47:00,
2013-02-06 11:52:00,17.8,13.2,30.16,South,178,0.0,6.0,82,0.00,,,0.00,199.00,VWS V14.01,2013-02-06 17:52:00,
2013-02-06 11:57:00,18.1,13.5,30.16,SE,140,1.0,6.0,82,0.00,,,0.00,199.00,VWS V14.01,2013-02-06 17:57:00,
2013-02-06 12:02:00,18.3,13.7,30.16,South,180,1.0,4.0,82,0.00,,,0.00,183.00,VWS V14.01,2013-02-06 18:02:00,
2013-02-06 12:07:00,18.5,13.9,30.16,ESE,104,2.0,4.0,82,0.00,,,0.00,158.00,VWS V14.01,2013-02-06 18:07:00,
2013-02-06 12:12:00,18.6,14.3,30.15,South,172,3.0,5.0,83,0.00,,,0.00,132.00,VWS V14.01,2013-02-06 18:12:00,
2013-02-06 12:17:00,18.6,14.6,30.15,SSE,160,0.0,7.0,84,0.00,,,0.00,127.00,VWS V14.01,2013-02-06 18:17:00,
2013-02-06 12:22:00,18.6,14.6,30.15,SSE,167,1.0,7.0,84,0.00,,,0.00,127.00,VWS V14.01,2013-02-06 18:22:00,
2013-02-06 12:27:00,18.7,14.9,30.15,SSE,167,0.0,7.0,85,0.00,,,0.00,130.00,VWS V14.01,2013-02-06 18:27:00,
2013-02-06 12:32:00,18.8,15.1,30.15,SE,143,1.0,3.0,85,0.00,,,0.00,118.00,VWS V14.01,2013-02-06 18:32:00,
2013-02-06 12:37:00,18.9,15.1,30.15,SE,141,1.0,3.0,85,0.00,,,0.00,116.00,VWS V14.01,2013-02-06 18:37:00,
2013-02-06 12:42:00,18.9,15.4,30.15,SE,141,0.0,3.0,86,0.00,,,0.00,116.00,VWS V14.01,2013-02-06 18:42:00,
2013-02-06 12:47:00,19.1,15.6,30.14,SE,140,0.0,3.0,86,0.00,,,0.00,105.00,VWS V14.01,2013-02-06 18:47:00,
2013-02-06 12:52:00,19.1,15.6,30.14,SE,140,0.0,3.0,86,0.00,,,0.00,91.00,VWS V14.01,2013-02-06 18:52:00,
2013-02-06 12:57:00,19.2,16.0,30.14,SE,126,1.0,3.0,87,0.00,,,0.00,90.00,VWS V14.01,2013-02-06 18:57:00,
2013-02-06 13:02:00,19.3,16.1,30.13,SE,126,1.0,1.0,87,0.00,,,0.00,81.00,VWS V14.01,2013-02-06 19:02:00,
2013-02-06 13:07:00,19.4,16.2,30.13,ESE,110,1.0,2.0,87,0.00,,,0.00,72.00,VWS V14.01,2013-02-06 19:07:00,
2013-02-06 13:12:00,19.5,16.3,30.12,East,96,1.0,3.0,87,0.00,,,0.00,69.00,VWS V14.01,2013-02-06 19:12:00,
2013-02-06 13:17:00,19.6,16.6,30.12,East,92,1.0,3.0,88,0.00,,,0.00,69.00,VWS V14.01,2013-02-06 19:17:00,
2013-02-06 13:22:00,19.8,16.8,30.12,East,92,0.0,3.0,88,0.00,,,0.00,65.00,VWS V14.01,2013-02-06 19:22:00,
2013-02-06 13:27:00,20.0,17.0,30.12,East,92,1.0,3.0,88,0.00,,,0.00,69.00,VWS V14.01,2013-02-06 19:27:00,
2013-02-06 13:32:00,20.2,17.2,30.12,East,92,0.0,2.0,88,0.00,,,0.00,70.00,VWS V14.01,2013-02-06 19:32:00,
2013-02-06 13:37:00,20.3,17.3,30.12,East,92,0.0,2.0,88,0.00,,,0.00,62.00,VWS V14.01,2013-02-06 19:37:00,
2013-02-06 13:42:00,20.3,17.3,30.11,East,92,1.0,2.0,88,0.00,,,0.00,60.00,VWS V14.01,2013-02-06 19:42:00,
2013-02-06 13:47:00,20.4,17.4,30.11,East,92,0.0,2.0,88,0.00,,,0.00,56.00,VWS V14.01,2013-02-06 19:47:00,
2013-02-06 13:52:00,20.4,17.4,30.10,East,92,0.0,2.0,88,0.00,,,0.00,49.00,VWS V14.01,2013-02-06 19:52:00,
2013-02-06 13:57:00,20.4,17.4,30.10,East,84,0.0,2.0,88,0.00,,,0.00,46.00,VWS V14.01,2013-02-06 19:57:00,
2013-02-06 14:02:00,20.6,17.6,30.10,East,84,0.0,2.0,88,0.00,,,0.00,40.00,VWS V14.01,2013-02-06 20:02:00,
2013-02-06 14:07:00,20.7,18.0,30.10,ENE,76,0.0,3.0,89,0.00,,,0.00,46.00,VWS V14.01,2013-02-06 20:07:00,
2013-02-06 14:12:00,20.9,17.9,30.09,ENE,76,0.0,3.0,88,0.00,,,0.00,54.00,VWS V14.01,2013-02-06 20:12:00,
2013-02-06 14:17:00,21.1,18.4,30.09,East,100,1.0,5.0,89,0.00,,,0.00,51.00,VWS V14.01,2013-02-06 20:17:00,
2013-02-06 14:22:00,21.3,18.6,30.10,East,100,1.0,5.0,89,0.00,,,0.00,46.00,VWS V14.01,2013-02-06 20:22:00,
2013-02-06 14:27:00,21.5,18.8,30.10,East,90,2.0,5.0,89,0.00,,,0.00,37.00,VWS V14.01,2013-02-06 20:27:00,
2013-02-06 14:32:00,21.6,18.9,30.10,SE,126,1.0,3.0,89,0.00,,,0.00,35.00,VWS V14.01,2013-02-06 20:32:00,
2013-02-06 14:37:00,21.8,19.1,30.10,ESE,116,0.0,3.0,89,0.00,,,0.00,40.00,VWS V14.01,2013-02-06 20:37:00,
2013-02-06 14:42:00,22.0,19.3,30.09,ESE,117,3.0,5.0,89,0.00,,,0.00,39.00,VWS V14.01,2013-02-06 20:42:00,
2013-02-06 14:47:00,22.1,19.4,30.09,ESE,105,3.0,5.0,89,0.00,,,0.00,28.00,VWS V14.01,2013-02-06 20:47:00,
2013-02-06 14:52:00,22.3,19.6,30.08,ESE,107,1.0,5.0,89,0.00,,,0.00,28.00,VWS V14.01,2013-02-06 20:52:00,
2013-02-06 14:57:00,22.5,19.8,30.07,East,94,1.0,5.0,89,0.00,,,0.00,32.00,VWS V14.01,2013-02-06 20:57:00,
2013-02-06 15:02:00,22.6,19.9,30.07,ENE,77,1.0,5.0,89,0.00,,,0.00,21.00,VWS V14.01,2013-02-06 21:02:00,
2013-02-06 15:07:00,22.7,20.0,30.07,East,79,2.0,5.0,89,0.00,,,0.00,21.00,VWS V14.01,2013-02-06 21:07:00,
2013-02-06 15:12:00,22.8,19.8,30.07,ESE,119,4.0,5.0,88,0.00,,,0.00,23.00,VWS V14.01,2013-02-06 21:12:00,
2013-02-06 15:17:00,22.9,19.9,30.07,ESE,109,2.0,6.0,88,0.00,,,0.00,21.00,VWS V14.01,2013-02-06 21:17:00,
2013-02-06 15:22:00,22.9,19.9,30.07,ESE,108,3.0,7.0,88,0.00,,,0.00,21.00,VWS V14.01,2013-02-06 21:22:00,
2013-02-06 15:27:00,23.0,20.0,30.07,ESE,104,0.0,7.0,88,0.00,,,0.00,19.00,VWS V14.01,2013-02-06 21:27:00,
2013-02-06 15:32:00,23.1,20.1,30.07,East,82,3.0,5.0,88,0.00,,,0.00,18.00,VWS V14.01,2013-02-06 21:32:00,
2013-02-06 15:37:00,23.1,20.1,30.07,East,92,2.0,5.0,88,0.00,,,0.00,11.00,VWS V14.01,2013-02-06 21:37:00,
2013-02-06 15:42:00,23.0,20.0,30.06,East,90,2.0,5.0,88,0.00,,,0.00,11.00,VWS V14.01,2013-02-06 21:42:00,
2013-02-06 15:47:00,22.9,19.6,30.05,East,101,3.0,8.0,87,0.00,,,0.00,11.00,VWS V14.01,2013-02-06 21:47:00,
2013-02-06 15:52:00,22.8,19.5,30.05,East,88,1.0,8.0,87,0.00,,,0.00,11.00,VWS V14.01,2013-02-06 21:52:00,
2013-02-06 15:57:00,22.7,19.4,30.05,East,98,1.0,8.0,87,0.00,,,0.00,7.00,VWS V14.01,2013-02-06 21:57:00,
2013-02-06 16:02:00,22.7,19.7,30.05,ESE,105,1.0,4.0,88,0.00,,OVC060,0.00,7.00,VWS V14.01,2013-02-06 22:02:00,
2013-02-06 16:07:00,22.8,19.8,30.05,East,99,3.0,4.0,88,0.00,,OVC060,0.00,7.00,VWS V14.01,2013-02-06 22:07:00,
2013-02-06 16:12:00,22.8,19.5,30.05,SE,130,2.0,4.0,87,0.00,,OVC060,0.00,7.00,VWS V14.01,2013-02-06 22:12:00,
2013-02-06 16:17:00,22.9,19.6,30.06,East,101,2.0,5.0,87,0.00,,OVC060,0.00,9.00,VWS V14.01,2013-02-06 22:17:00,
2013-02-06 16:22:00,22.9,19.6,30.05,ESE,107,3.0,8.0,87,0.00,,OVC060,0.00,11.00,VWS V14.01,2013-02-06 22:22:00,
2013-02-06 16:27:00,22.9,19.6,30.05,ESE,117,3.0,8.0,87,0.00,,OVC060,0.00,11.00,VWS V14.01,2013-02-06 22:27:00,
2013-02-06 16:32:00,22.9,19.6,30.05,ENE,64,3.0,5.0,87,0.00,,OVC060,0.00,9.00,VWS V14.01,2013-02-06 22:32:00,
2013-02-06 16:38:00,22.9,19.6,30.05,SE,136,3.0,7.0,87,0.00,,OVC060,0.00,9.00,VWS V14.01,2013-02-06 22:38:00,
2013-02-06 16:43:00,22.9,19.6,30.04,East,81,2.0,7.0,87,0.00,,OVC060,0.00,9.00,VWS V14.01,2013-02-06 22:43:00,
2013-02-06 16:48:00,22.9,19.6,30.05,ENE,77,2.0,7.0,87,0.00,,OVC060,0.00,7.00,VWS V14.01,2013-02-06 22:48:00,
2013-02-06 16:53:00,22.9,19.6,30.04,East,91,2.0,7.0,87,0.00,,OVC060,0.00,5.00,VWS V14.01,2013-02-06 22:53:00,
2013-02-06 16:58:00,22.9,19.6,30.04,ESE,103,2.0,7.0,87,0.00,,OVC060,0.00,5.00,VWS V14.01,2013-02-06 22:58:00,
2013-02-06 17:03:00,23.0,19.7,30.04,East,92,0.0,6.0,87,0.00,,OVC070,0.00,0.00,VWS V14.01,2013-02-06 23:03:00,
2013-02-06 17:08:00,23.0,19.7,30.04,East,97,1.0,6.0,87,0.00,,OVC070,0.00,0.00,VWS V14.01,2013-02-06 23:08:00,
2013-02-06 17:13:00,23.0,20.0,30.04,ESE,117,3.0,6.0,88,0.00,,OVC070,0.00,0.00,VWS V14.01,2013-02-06 23:13:00,
2013-02-06 17:18:00,23.1,20.1,30.05,ENE,69,1.0,6.0,88,0.00,,OVC070,0.00,0.00,VWS V14.01,2013-02-06 23:18:00,
2013-02-06 17:23:00,23.1,20.1,30.05,ESE,102,1.0,6.0,88,0.00,,OVC070,0.00,0.00,VWS V14.01,2013-02-06 23:23:00,
2013-02-06 17:28:00,23.1,19.8,30.05,ENE,63,1.0,6.0,87,0.00,,OVC070,0.00,0.00,VWS V14.01,2013-02-06 23:28:00,
2013-02-06 17:33:00,23.2,19.9,30.05,ESE,114,0.0,2.0,87,0.00,,OVC070,0.00,0.00,VWS V14.01,2013-02-06 23:33:00,
2013-02-06 17:38:00,23.2,19.9,30.06,East,96,2.0,2.0,87,0.00,,OVC070,0.00,0.00,VWS V14.01,2013-02-06 23:38:00,
2013-02-06 17:43:00,23.2,19.9,30.06,ESE,117,2.0,4.0,87,0.00,,OVC070,0.00,0.00,VWS V14.01,2013-02-06 23:43:00,
2013-02-06 17:48:00,23.3,20.0,30.06,East,97,1.0,4.0,87,0.00,,OVC070,0.00,0.00,VWS V14.01,2013-02-06 23:48:00,
2013-02-06 17:53:00,23.3,20.0,30.06,SE,124,3.0,4.0,87,0.00,,OVC070,0.00,0.00,VWS V14.01,2013-02-06 23:53:00,
2013-02-06 17:58:00,23.3,20.0,30.06,ESE,120,2.0,4.0,87,0.00,,OVC070,0.00,0.00,VWS V14.01,2013-02-06 23:58:00,
2013-02-06 18:03:00,23.4,20.1,30.06,ESE,102,4.0,5.0,87,0.00,,OVC046,0.00,0.00,VWS V14.01,2013-02-07 00:03:00,
2013-02-06 18:08:00,23.4,20.1,30.06,ESE,104,2.0,5.0,87,0.00,,OVC046,0.00,0.00,VWS V14.01,2013-02-07 00:08:00,
2013-02-06 18:13:00,23.4,20.1,30.06,SE,130,3.0,5.0,87,0.00,,OVC046,0.00,0.00,VWS V14.01,2013-02-07 00:13:00,
2013-02-06 18:18:00,23.4,20.1,30.06,SE,127,0.0,5.0,87,0.00,,OVC046,0.00,0.00,VWS V14.01,2013-02-07 00:18:00,
2013-02-06 18:23:00,23.5,20.2,30.06,ESE,115,1.0,5.0,87,0.00,,OVC046,0.00,0.00,VWS V14.01,2013-02-07 00:23:00,
2013-02-06 18:28:00,23.5,20.2,30.06,East,90,1.0,5.0,87,0.00,,OVC046,0.00,0.00,VWS V14.01,2013-02-07 00:28:00,
2013-02-06 18:33:00,23.6,20.3,30.06,East,92,0.0,3.0,87,0.00,,OVC046,0.00,0.00,VWS V14.01,2013-02-07 00:33:00,
2013-02-06 18:38:00,23.6,20.3,30.06,ENE,76,1.0,5.0,87,0.00,,OVC046,0.00,0.00,VWS V14.01,2013-02-07 00:38:00,
2013-02-06 18:43:00,23.6,20.3,30.06,SE,130,2.0,5.0,87,0.00,,OVC046,0.00,0.00,VWS V14.01,2013-02-07 00:43:00,
2013-02-06 18:48:00,23.7,20.4,30.06,East,90,1.0,5.0,87,0.00,,OVC046,0.00,0.00,VWS V14.01,2013-02-07 00:48:00,
2013-02-06 18:53:00,23.8,20.5,30.06,ESE,105,3.0,5.0,87,0.00,,OVC046,0.00,0.00,VWS V14.01,2013-02-07 00:53:00,
2013-02-06 18:58:00,23.8,20.5,30.06,East,94,1.0,5.0,87,0.00,,OVC046,0.00,0.00,VWS V14.01,2013-02-07 00:58:00,
2013-02-06 19:03:00,23.9,20.6,30.06,ESE,122,0.0,3.0,87,0.00,,OVC042,0.00,0.00,VWS V14.01,2013-02-07 01:03:00,
2013-02-06 19:08:00,23.9,20.6,30.06,ESE,123,2.0,3.0,87,0.00,,OVC042,0.00,0.00,VWS V14.01,2013-02-07 01:08:00,
2013-02-06 19:13:00,24.0,20.7,30.06,East,96,1.0,3.0,87,0.00,,OVC042,0.00,0.00,VWS V14.01,2013-02-07 01:13:00,
2013-02-06 19:18:00,24.0,20.7,30.06,SE,128,3.0,4.0,87,0.05,,OVC042,0.00,0.00,VWS V14.01,2013-02-07 01:18:00,
2013-02-06 19:23:00,24.1,20.8,30.06,ESE,105,0.0,5.0,87,0.05,,OVC042,0.00,0.00,VWS V14.01,2013-02-07 01:23:00,
2013-02-06 19:28:00,24.2,20.9,30.06,East,80,3.0,5.0,87,0.05,,OVC042,0.00,0.00,VWS V14.01,2013-02-07 01:28:00,
2013-02-06 19:33:00,24.2,20.9,30.06,East,80,0.0,2.0,87,0.05,,OVC042,0.00,0.00,VWS V14.01,2013-02-07 01:33:00,
2013-02-06 19:38:00,24.3,21.0,30.06,ENE,76,0.0,4.0,87,0.05,,OVC042,0.00,0.00,VWS V14.01,2013-02-07 01:38:00,
2013-02-06 19:43:00,24.3,21.0,30.06,ESE,114,0.0,4.0,87,0.05,,OVC042,0.00,0.00,VWS V14.01,2013-02-07 01:43:00,
2013-02-06 19:48:00,24.4,21.1,30.06,East,87,0.0,4.0,87,0.05,,OVC042,0.00,0.00,VWS V14.01,2013-02-07 01:48:00,
2013-02-06 19:53:00,24.4,21.1,30.07,ENE,59,0.0,4.0,87,0.05,,OVC042,0.00,0.00,VWS V14.01,2013-02-07 01:53:00,
2013-02-06 19:58:00,24.4,21.1,30.06,SSE,147,1.0,4.0,87,0.05,,OVC042,0.00,0.00,VWS V14.01,2013-02-07 01:58:00,
2013-02-06 20:03:00,24.5,21.2,30.07,SE,144,1.0,2.0,87,0.05,,OVC042,0.00,0.00,VWS V14.01,2013-02-07 02:03:00,
2013-02-06 20:08:00,24.5,21.2,30.06,East,101,0.0,3.0,87,0.05,,OVC042,0.00,0.00,VWS V14.01,2013-02-07 02:08:00,
2013-02-06 20:13:00,24.5,21.5,30.07,East,101,0.0,3.0,88,0.05,,OVC042,0.00,0.00,VWS V14.01,2013-02-07 02:13:00,
2013-02-06 20:18:00,24.5,21.5,30.07,ESE,118,1.0,3.0,88,0.05,,OVC042,0.00,0.00,VWS V14.01,2013-02-07 02:18:00,
2013-02-06 20:23:00,24.5,21.5,30.07,ENE,78,0.0,3.0,88,0.05,,OVC040,0.00,0.00,VWS V14.01,2013-02-07 02:23:00,
2013-02-06 20:28:00,24.5,21.5,30.07,SE,128,2.0,3.0,88,0.05,,OVC040,0.00,0.00,VWS V14.01,2013-02-07 02:28:00,
2013-02-06 20:33:00,24.6,21.6,30.07,East,88,0.0,2.0,88,0.00,,OVC040,0.00,0.00,VWS V14.01,2013-02-07 02:33:00,
2013-02-06 20:38:00,24.6,21.6,30.07,East,80,1.0,3.0,88,0.00,,OVC040,0.00,0.00,VWS V14.01,2013-02-07 02:38:00,
2013-02-06 20:43:00,24.6,21.6,30.06,East,80,0.0,3.0,88,0.00,,OVC040,0.00,0.00,VWS V14.01,2013-02-07 02:43:00,
2013-02-06 20:48:00,24.7,21.7,30.06,ENE,73,1.0,5.0,88,0.00,,OVC040,0.00,0.00,VWS V14.01,2013-02-07 02:48:00,
2013-02-06 20:53:00,24.7,21.7,30.06,East,101,1.0,5.0,88,0.00,,OVC040,0.00,0.00,VWS V14.01,2013-02-07 02:53:00,
2013-02-06 20:58:00,24.7,21.7,30.06,ESE,114,0.0,5.0,88,0.00,,OVC040,0.00,0.00,VWS V14.01,2013-02-07 02:58:00,
2013-02-06 21:03:00,24.8,21.8,30.07,East,90,0.0,2.0,88,0.00,,OVC034,0.00,0.00,VWS V14.01,2013-02-07 03:03:00,
2013-02-06 21:08:00,24.8,21.8,30.07,ESE,104,0.0,2.0,88,0.00,,OVC034,0.00,0.00,VWS V14.01,2013-02-07 03:08:00,
2013-02-06 21:13:00,24.8,21.8,30.07,ESE,111,1.0,4.0,88,0.00,,OVC034,0.00,0.00,VWS V14.01,2013-02-07 03:13:00,
2013-02-06 21:18:00,24.9,21.9,30.07,East,85,0.0,4.0,88,0.00,,OVC034,0.00,0.00,VWS V14.01,2013-02-07 03:18:00,
2013-02-06 21:23:00,24.9,21.9,30.07,ESE,118,0.0,4.0,88,0.00,,OVC034,0.00,0.00,VWS V14.01,2013-02-07 03:23:00,
2013-02-06 21:28:00,24.9,21.9,30.07,East,96,2.0,4.0,88,0.00,,OVC034,0.00,0.00,VWS V14.01,2013-02-07 03:28:00,
2013-02-06 21:33:00,25.0,22.0,30.07,ESE,123,2.0,4.0,88,0.00,,OVC034,0.00,0.00,VWS V14.01,2013-02-07 03:33:00,
2013-02-06 21:38:00,25.0,21.7,30.06,East,80,2.0,4.0,87,0.00,,OVC034,0.00,0.00,VWS V14.01,2013-02-07 03:38:00,
2013-02-06 21:43:00,25.1,21.8,30.07,ENE,70,1.0,4.0,87,0.00,,OVC034,0.00,0.00,VWS V14.01,2013-02-07 03:43:00,
2013-02-06 21:48:00,25.1,21.8,30.07,ESE,119,2.0,4.0,87,0.00,,OVC034,0.00,0.00,VWS V14.01,2013-02-07 03:48:00,
2013-02-06 21:53:00,25.1,21.8,30.07,ENE,69,2.0,4.0,87,0.00,,OVC034,0.00,0.00,VWS V14.01,2013-02-07 03:53:00,
2013-02-06 21:58:00,25.1,21.8,30.07,ESE,111,0.0,4.0,87,0.00,,OVC034,0.00,0.00,VWS V14.01,2013-02-07 03:58:00,
2013-02-06 22:03:00,25.2,21.9,30.07,ESE,117,0.0,4.0,87,0.00,,OVC034,0.00,0.00,VWS V14.01,2013-02-07 04:03:00,
2013-02-06 22:08:00,25.2,21.9,30.07,ESE,113,1.0,4.0,87,0.00,,OVC034,0.00,0.00,VWS V14.01,2013-02-07 04:08:00,
2013-02-06 22:13:00,25.2,21.9,30.07,ESE,107,1.0,4.0,87,0.00,,OVC034,0.00,0.00,VWS V14.01,2013-02-07 04:13:00,
2013-02-06 22:18:00,25.2,21.9,30.07,ESE,112,2.0,4.0,87,0.00,,OVC034,0.00,0.00,VWS V14.01,2013-02-07 04:18:00,
2013-02-06 22:23:00,25.2,21.9,30.07,ESE,102,2.0,4.0,87,0.00,,OVC034,0.00,0.00,VWS V14.01,2013-02-07 04:23:00,
2013-02-06 22:28:00,25.2,21.9,30.06,ESE,115,0.0,4.0,87,0.00,,OVC034,0.00,0.00,VWS V14.01,2013-02-07 04:28:00,
2013-02-06 22:33:00,25.2,21.9,30.06,SE,130,4.0,7.0,87,0.00,,OVC034,0.00,0.00,VWS V14.01,2013-02-07 04:33:00,
2013-02-06 22:38:00,25.3,22.0,30.06,East,88,1.0,7.0,87,0.00,,OVC034,0.00,0.00,VWS V14.01,2013-02-07 04:38:00,
2013-02-06 22:43:00,25.3,22.0,30.06,SE,133,1.0,7.0,87,0.00,,OVC034,0.00,0.00,VWS V14.01,2013-02-07 04:43:00,
2013-02-06 22:48:00,25.3,22.0,30.06,ESE,109,2.0,7.0,87,0.00,,OVC034,0.00,0.00,VWS V14.01,2013-02-07 04:48:00,
2013-02-06 22:54:00,25.3,22.0,30.06,East,90,2.0,7.0,87,0.00,,OVC034,0.00,0.00,VWS V14.01,2013-02-07 04:54:00,
2013-02-06 22:59:00,25.3,22.0,30.06,ESE,113,1.0,7.0,87,0.00,,OVC034,0.00,0.00,VWS V14.01,2013-02-07 04:59:00,
2013-02-06 23:00:00,25.3,22.0,30.06,NE,53,2.0,4.0,87,0.00,,OVC034,0.00,0.00,VWS V14.01,2013-02-07 05:00:00,
2013-02-06 23:01:00,25.3,22.0,30.06,ESE,114,0.0,4.0,87,0.00,,OVC034,0.00,0.00,VWS V14.01,2013-02-07 05:01:00,
2013-02-06 23:06:00,25.3,22.0,30.06,ESE,117,0.0,4.0,87,0.00,,OVC034,0.00,0.00,VWS V14.01,2013-02-07 05:06:00,
2013-02-06 23:11:00,25.3,22.0,30.06,ESE,121,0.0,4.0,87,0.00,,OVC034,0.00,0.00,VWS V14.01,2013-02-07 05:11:00,
2013-02-06 23:16:00,25.2,21.9,30.07,ENE,74,2.0,4.0,87,0.00,,OVC034,0.00,0.00,VWS V14.01,2013-02-07 05:16:00,
2013-02-06 23:21:00,25.2,21.9,30.06,ENE,75,0.0,4.0,87,0.00,,OVC034,0.00,0.00,VWS V14.01,2013-02-07 05:21:00,
2013-02-06 23:26:00,25.2,21.9,30.06,SE,125,0.0,4.0,87,0.00,,OVC034,0.00,0.00,VWS V14.01,2013-02-07 05:26:00,
2013-02-06 23:31:00,25.2,21.9,30.06,SE,125,0.0,2.0,87,0.00,,OVC034,0.00,0.00,VWS V14.01,2013-02-07 05:31:00,
2013-02-06 23:36:00,25.2,21.9,30.06,East,80,1.0,5.0,87,0.00,,OVC034,0.00,0.00,VWS V14.01,2013-02-07 05:36:00,
2013-02-06 23:41:00,25.2,21.9,30.06,East,80,0.0,5.0,87,0.00,,OVC034,0.00,0.00,VWS V14.01,2013-02-07 05:41:00,
2013-02-06 23:47:00,25.2,21.9,30.07,East,80,0.0,5.0,87,0.00,,OVC034,0.00,0.00,VWS V14.01,2013-02-07 05:47:00,
2013-02-06 23:52:00,25.1,21.8,30.06,East,81,1.0,5.0,87,0.00,,OVC034,0.00,0.00,VWS V14.01,2013-02-07 05:52:00,
2013-02-06 23:57:00,25.1,21.8,30.06,East,86,1.0,5.0,87,0.00,,OVC034,0.00,0.00,VWS V14.01,2013-02-07 05:57:00,